Location: Jackson Park
(37.2862°N, 79.9123°W)
Time: 02:47:25
(UTC+00:00)

Tiros 1 despin weight - Pass Details

Date: 17 May 2026
Orbit: 554 x 591 km, 48.2° (Epoch: 6 June)

Event Time Altitude Azimuth Distance (km) Brightness Sun altitude
Rises 13:50:18 0° 307° (NW) 2,739 ? 42.0°
Reaches altitude 10° 13:52:51 10° 320° (NW) 1,838 ? 42.5°
Maximum altitude 13:56:24 26° 18° (NNE) 1,110 ? 43.2°
Drops below altitude 10° 13:59:56 10° 76° (ENE) 1,830 ? 43.9°
Sets 14:02:28 0° 89° (E) 2,723 ? 44.4°
